TimePDT,TemperatureF,Dew PointF,Humidity,Sea Level PressureIn,VisibilityMPH,Wind Direction,Wind SpeedMPH,Gust SpeedMPH,PrecipitationIn,Events,Conditions,WindDirDegrees,DateUTC
12:53 AM,57.9,52.0,81,29.93,10.0,NW,8.1,-,N/A,,Clear,310,2013-08-03 07:53:00
1:53 AM,57.0,52.0,83,29.93,10.0,NW,5.8,-,N/A,,Clear,310,2013-08-03 08:53:00
2:53 AM,57.0,52.0,83,29.93,10.0,WNW,5.8,-,N/A,,Clear,300,2013-08-03 09:53:00
3:53 AM,55.9,52.0,87,29.92,10.0,Calm,Calm,-,N/A,,Clear,0,2013-08-03 10:53:00
4:53 AM,57.0,52.0,83,29.92,9.0,Calm,Calm,-,N/A,,Partly Cloudy,0,2013-08-03 11:53:00
5:10 AM,57.2,51.8,82,29.93,10.0,Calm,Calm,-,N/A,,Mostly Cloudy,0,2013-08-03 12:10:00
5:51 AM,55.4,51.8,88,29.94,10.0,Calm,Calm,-,N/A,,Scattered Clouds,0,2013-08-03 12:51:00
5:53 AM,57.0,52.0,83,29.94,10.0,Calm,Calm,-,N/A,,Partly Cloudy,0,2013-08-03 12:53:00
6:15 AM,57.2,53.6,88,29.95,10.0,Calm,Calm,-,N/A,,Mostly Cloudy,0,2013-08-03 13:15:00
6:53 AM,57.9,53.1,84,29.95,7.0,Calm,Calm,-,N/A,,Overcast,0,2013-08-03 13:53:00
7:53 AM,59.0,53.1,81,29.96,8.0,Calm,Calm,-,N/A,,Overcast,0,2013-08-03 14:53:00
8:53 AM,60.1,53.1,78,29.98,10.0,Calm,Calm,-,N/A,,Mostly Cloudy,0,2013-08-03 15:53:00
9:46 AM,64.4,53.6,68,29.97,10.0,Calm,Calm,-,N/A,,Clear,0,2013-08-03 16:46:00
9:53 AM,64.0,53.1,67,29.97,10.0,Variable,4.6,-,N/A,,Clear,0,2013-08-03 16:53:00
10:53 AM,68.0,53.1,59,29.96,10.0,Calm,Calm,-,N/A,,Clear,0,2013-08-03 17:53:00
11:53 AM,73.9,53.1,48,29.95,10.0,West,4.6,-,N/A,,Clear,280,2013-08-03 18:53:00
12:53 PM,79.0,52.0,39,29.93,10.0,West,8.1,-,N/A,,Clear,280,2013-08-03 19:53:00
1:53 PM,82.9,52.0,34,29.91,10.0,SSW,6.9,-,N/A,,Clear,210,2013-08-03 20:53:00
2:53 PM,84.9,52.0,32,29.90,10.0,NW,10.4,-,N/A,,Clear,320,2013-08-03 21:53:00
3:53 PM,87.1,51.1,29,29.89,10.0,WNW,11.5,-,N/A,,Clear,300,2013-08-03 22:53:00
4:53 PM,84.9,53.1,33,29.88,10.0,West,13.8,-,N/A,,Clear,280,2013-08-03 23:53:00
5:53 PM,82.9,53.1,36,29.87,10.0,West,11.5,-,N/A,,Clear,280,2013-08-04 00:53:00
6:53 PM,79.0,53.1,40,29.87,10.0,West,12.7,-,N/A,,Clear,280,2013-08-04 01:53:00
7:53 PM,73.0,53.1,49,29.89,10.0,West,11.5,-,N/A,,Clear,270,2013-08-04 02:53:00
8:53 PM,69.1,53.1,57,29.91,10.0,WNW,6.9,-,N/A,,Clear,290,2013-08-04 03:53:00
9:53 PM,64.9,53.1,65,29.94,10.0,WNW,8.1,-,N/A,,Clear,290,2013-08-04 04:53:00
10:53 PM,62.1,52.0,70,29.94,10.0,NW,10.4,-,N/A,,Clear,310,2013-08-04 05:53:00
11:53 PM,59.0,52.0,78,29.95,10.0,WNW,11.5,-,N/A,,Clear,300,2013-08-04 06:53:00